Location: Unspecified
(52.1971°N, 0.0000°E)
Time: 23:27:42
(UTC+00:00)

YUBILEINY - Visible Passes

Search period start: 14 December 2019 00:00
Search period end: 24 December 2019 00:00
Orbit: 1477 x 1509 km, 82.5° (Epoch: 14 December)

Date Brightness Start Highest point End Pass type
(mag) Time Alt. Az. Time Alt. Az. Time Alt. Az.
14 Dec ? 00:20:59 11° N 00:20:59 11° N 00:21:39 10° N visible
14 Dec ? 04:20:38 10° NNE 04:21:34 10° NNE 04:22:31 10° NE visible
14 Dec ? 06:14:32 10° N 06:22:10 32° ENE 06:29:44 10° ESE visible
14 Dec ? 21:35:50 11° N 21:35:50 11° N 21:36:04 10° N visible
14 Dec ? 23:31:43 12° N 23:31:43 12° N 23:32:33 10° N visible
15 Dec ? 05:25:17 10° N 05:31:32 21° NE 05:37:45 10° E visible
15 Dec ? 07:21:35 10° N 07:30:18 69° ENE 07:38:58 10° SSE visible
15 Dec ? 22:42:27 13° N 22:42:27 13° N 22:43:12 10° N visible
16 Dec ? 00:38:21 10° NNW 00:38:21 10° NNW 00:38:33 10° NNW visible
16 Dec ? 04:36:26 10° N 04:40:29 14° NE 04:44:32 10° ENE visible
16 Dec ? 06:32:03 10° N 06:40:18 44° ENE 06:48:31 10° SE visible
16 Dec ? 21:53:10 12° N 21:53:10 12° N 21:53:44 10° N visible
16 Dec ? 23:49:04 12° N 23:49:04 12° N 23:49:53 10° N visible
17 Dec ? 05:42:41 10° N 05:49:57 28° NE 05:57:12 10° ESE visible
17 Dec ? 21:03:52 11° NNE 21:03:52 11° NNE 21:04:06 10° NNE visible
17 Dec ? 22:59:46 13° N 22:59:46 13° N 23:00:42 10° N visible
18 Dec ? 04:53:31 10° N 04:59:13 18° NE 05:04:53 10° E visible
18 Dec ? 06:49:39 10° N 06:58:17 60° ENE 07:06:52 10° SSE visible
18 Dec ? 22:10:27 13° N 22:10:27 13° N 22:11:19 10° N visible
19 Dec ? 00:06:21 11° NNW 00:06:21 11° NNW 00:07:00 10° N visible
19 Dec ? 04:04:55 10° NNE 04:08:03 12° NNE 04:11:11 10° NE visible
19 Dec ? 06:00:10 10° N 06:08:12 38° ENE 06:16:10 10° SE visible
19 Dec ? 21:21:06 13° N 21:21:06 13° N 21:21:47 10° N visible
19 Dec ? 23:17:00 13° N 23:17:00 13° N 23:18:06 10° N visible
20 Dec ? 05:10:50 10° N 05:17:44 25° NE 05:24:35 10° ESE visible
20 Dec ? 07:07:18 10° N 07:16:04 82° ENE 07:24:50 10° SSE visible
20 Dec ? 20:31:44 12° NNE 20:31:44 12° NNE 20:32:08 10° NNE visible
20 Dec ? 22:27:37 14° N 22:27:37 14° N 22:28:51 10° N visible
21 Dec ? 04:21:46 10° N 04:26:51 16° NE 04:31:56 10° ENE visible
21 Dec ? 06:17:44 10° N 06:26:14 53° ENE 06:34:42 10° SE visible
21 Dec ? 19:42:20 10° NNE 19:42:20 10° NNE 19:23:19 - SSE visible
21 Dec ? 21:38:14 15° N 21:38:14 15° N 21:39:24 10° N visible
21 Dec ? 23:34:06 12° NNW 23:34:06 12° NNW 23:35:20 10° N visible
22 Dec ? 03:33:44 10° NNE 03:35:34 11° NNE 03:37:25 10° NE visible
22 Dec ? 05:28:17 10° N 05:36:02 34° ENE 05:43:45 10° ESE visible
22 Dec ? 07:25:01 10° NNW 07:33:42 74° W 07:42:23 10° S visible
22 Dec?18:52:54NNE18:52:54NNE18:35:19SEvisible
22 Dec ? 20:48:46 15° N 20:48:46 15° N 20:49:51 10° N visible
22 Dec ? 22:44:39 15° N 22:44:39 15° N 22:46:17 10° N visible
23 Dec ? 04:39:01 10° N 04:45:28 22° NE 04:51:53 10° E visible
23 Dec ? 06:35:21 10° N 06:44:06 72° ENE 06:52:49 10° SSE visible
23 Dec?18:03:24NNE18:03:24NNE17:47:24ESEvisible
23 Dec ? 19:42:58 10° S 19:59:16 14° NNE 20:00:09 10° NNE visible
23 Dec ? 21:55:08 17° N 21:55:08 17° N 21:56:58 10° N visible
23 Dec ? 23:51:00 11° NNW 23:51:00 11° NNW 23:52:07 10° NNW visible
